This is the latest recevied weather packets stored in our database for station/object N1CTF-9. If no packets are shown the sender has not sent any weather packets the latest 10 day(s).
| Time | Temp. | Humidity | Pressure | Rain* | Wind** | Luminosity | Snow |
|---|---|---|---|---|---|---|---|
| 1777364790 | 14.44° C | 97% | 1006.1 hPa | 1.27 mm | - | 0 W/m² | - |
| 1777364190 | 14.44° C | 97% | 1005.5 hPa | 1.52 mm | - | 0 W/m² | - |
| 1777363590 | 14.44° C | 97% | 1005.7 hPa | 1.78 mm | - | 0 W/m² | - |
| 1777362990 | 14.44° C | 97% | 1007.5 hPa | 1.78 mm | - | 0 W/m² | - |
| 1777362390 | 14.44° C | 97% | 1009.9 hPa | 2.03 mm | - | 0 W/m² | - |
| 1777361790 | 14.44° C | 97% | 1010.4 hPa | 4.83 mm | - | 0 W/m² | - |
| 1777361190 | 14.44° C | 97% | 1011 hPa | 7.11 mm | - | 0 W/m² | - |
| 1777360590 | 14.44° C | 97% | 1011.1 hPa | 7.62 mm | - | 0 W/m² | - |
| 1777359990 | 14.44° C | 96% | 1011 hPa | 7.62 mm | - | 0 W/m² | - |
| 1777359389 | 14.44° C | 96% | 1011.1 hPa | 7.87 mm | - | 0 W/m² | - |
| 1777358790 | 14.44° C | 96% | 1011.4 hPa | 7.37 mm | - | 0 W/m² | - |
| 1777358190 | 15° C | 95% | 1012.2 hPa | 4.83 mm | - | 0 W/m² | - |
| 1777357589 | 15° C | 94% | 1012.6 hPa | 2.29 mm | - | 0 W/m² | - |
| 1777356990 | 15° C | 92% | 1012.7 hPa | 1.78 mm | - | 0 W/m² | - |
| 1777356390 | 15° C | 92% | 1010.5 hPa | 1.52 mm | - | 0 W/m² | - |
| 1777355790 | 15° C | 91% | 1009.6 hPa | 1.27 mm | - | 0 W/m² | - |
| 1777355190 | 15.56° C | 91% | 1008.9 hPa | 1.27 mm | - | 0 W/m² | - |
| 1777354590 | 15.56° C | 91% | 1008.4 hPa | 1.27 mm | - | 0 W/m² | - |
| 1777353990 | 15.56° C | 90% | 1008.6 hPa | 1.02 mm | - | 0 W/m² | - |
| 1777353390 | 15.56° C | 90% | 1008.9 hPa | 0.76 mm | - | 0 W/m² | - |
| 1777352790 | 15.56° C | 90% | 1008.5 hPa | 0.76 mm | - | 0 W/m² | - |
| 1777352190 | 15.56° C | 91% | 1008.6 hPa | 0.51 mm | - | 0 W/m² | - |
| 1777351590 | 15.56° C | 91% | 1008.5 hPa | 0.51 mm | - | 0 W/m² | - |
| 1777350990 | 15.56° C | 91% | 1008.2 hPa | 0.51 mm | - | 0 W/m² | - |
| 1777350390 | 16.11° C | 90% | 1008.3 hPa | 0.51 mm | - | 0 W/m² | - |
* Rain latest hour (hover to see other rain measurements)
** Current wind speed in m/s (hover to see current wind gust speed)